Location: Newark
(47.3000°N, 8.0500°E)
Time: 07:21:23
(UTC+00:00)

OTV 5 (USA 277) - Pass Details

Date: 29 August 2019
Orbit: 295 x 339 km, 54.5° (Epoch: 08 September)

Event Time Altitude Azimuth Distance (km) Brightness Sun altitude
Rises 19:06:14 0° 257° (WSW) 2,005 ? -9.1°
Reaches altitude 10° 19:08:16 10° 267° (W) 1,176 ? -9.4°
Maximum altitude 19:10:42 35° 336° (NNW) 511 ? -9.8°
Drops below altitude 10° 19:13:07 10° 46° (NE) 1,168 ? -10.2°
Enters shadow 19:14:28 - 53° (NE) 1,712 ? -10.4°
